This demonstration page uses our WeatherBlox Daily Observations layout. Learn more.

Left ArrowRight Arrow

39.51506, -84.39828

Hourly Observations for November 27, 2020

Temp ( °F °C ) Dew Point ( °F °C ) Humidity (%) Winds ( mph kmh ) Pressure ( in mb ) Visibility ( mi km ) Precip ( " mm )
12:15 am 00:15 Cloudy 47 8.4 46 7.5 94 94 Calm 30.13 1020 10 16.0934 0 0
12:35 am 00:35 Cloudy 47 8.6 45 7.2 91 91 Calm 30.13 1020 10 16.0934 0 0
12:55 am 00:55 Cloudy 48 8.7 45 7.2 90 90 Calm 30.13 1020 10 16.0934 0 0
1:15 am 01:15 Cloudy 48 9 43 6.3 83 83 W 3 6 30.13 1020 10 16.0934 0 0
1:35 am 01:35 Cloudy 48 8.9 43 6 82 82 W 3 6 30.12 1020 10 16.0934 0 0
1:55 am 01:55 Cloudy 48 9 43 6.1 82 82 Calm 30.12 1020 10 16.0934 0 0
2:15 am 02:15 Cloudy 48 8.8 43 6.2 84 84 Calm 30.13 1020 10 16.0934 0 0
2:35 am 02:35 Cloudy 48 8.8 43 6.2 84 84 Calm 30.13 1020 10 16.0934 0 0
2:55 am 02:55 Cloudy 47 8.5 44 6.5 87 87 Calm 30.14 1021 10 16.0934 0 0
3:15 am 03:15 Cloudy 47 8.6 43 6.2 85 85 Calm 30.14 1021 10 16.0934 0 0
3:35 am 03:35 Cloudy 48 8.8 43 6 83 83 WNW 3 6 30.15 1021 10 16.0934 0 0
3:55 am 03:55 Cloudy 48 8.7 42 5.7 82 82 WNW 3 6 30.14 1021 10 16.0934 0 0
4:15 am 04:15 Cloudy 47 8.6 42 5.5 81 81 WNW 5 7 30.14 1021 10 16.0934 0 0
4:35 am 04:35 Cloudy 47 8.6 40 4.7 77 77 NW 3 6 30.14 1021 10 16.0934 0 0
4:55 am 04:55 Cloudy 48 8.8 40 4.2 73 73 W 5 7 30.14 1021 10 16.0934 0 0
5:15 am 05:15 Cloudy 48 8.8 39 3.9 72 72 WSW 6 9 30.14 1021 10 16.0934 0 0
5:35 am 05:35 Cloudy 47 8.4 40 4.4 76 76 Calm 30.14 1021 10 16.0934 0 0
5:55 am 05:55 Cloudy 48 8.7 39 3.8 72 72 W 3 6 30.14 1021 10 16.0934 0 0
6:15 am 06:15 Cloudy 47 8.2 40 4.6 78 78 W 6 9 30.14 1021 10 16.0934 0 0
6:35 am 06:35 Cloudy 47 8.1 41 4.8 80 80 Calm 30.15 1021 10 16.0934 0 0
6:55 am 06:55 Cloudy 47 8.1 40 4.6 79 79 Calm 30.16 1021 10 16.0934 0 0
7:15 am 07:15 Cloudy 47 8.3 40 4.2 76 76 Calm 30.15 1021 10 16.0934 0 0
7:35 am 07:35 Cloudy 47 8.1 40 4.2 77 77 Calm 30.15 1021 10 16.0934 0 0
7:55 am 07:55 Cloudy 46 7.9 41 4.8 81 81 Calm 30.16 1021 10 16.0934 0 0
8:15 am 08:15 Cloudy 46 7.9 41 5 82 82 Calm 30.16 1021 10 16.0934 0 0
8:35 am 08:35 Cloudy 47 8.1 41 5.1 82 82 Calm 30.16 1021 10 16.0934 0 0
8:55 am 08:55 Cloudy 47 8.2 40 4.7 79 79 Calm 30.16 1021 10 16.0934 0 0
9:15 am 09:15 Cloudy 47 8.4 41 4.8 78 78 Calm 30.16 1021 10 16.0934 0 0
9:35 am 09:35 Cloudy 47 8.6 40 4.2 74 74 W 7 11 30.18 1022 10 16.0934 0 0
9:55 am 09:55 Cloudy 48 8.9 38 3.3 68 68 W 6 9 30.17 1022 10 16.0934 0 0
10:15 am 10:15 Cloudy 48 9.1 38 3.3 67 67 Calm 30.16 1021 10 16.0934 0 0
10:35 am 10:35 Cloudy 49 9.3 38 3.4 67 67 Calm 30.17 1022 10 16.0934 0 0
10:55 am 10:55 Cloudy 48 9 37 3 66 66 WSW 8 13 30.17 1022 10 16.0934 0 0
11:15 am 11:15 Cloudy 48 9 39 4 71 71 WNW 5 7 30.16 1021 10 16.0934 0 0
11:35 am 11:35 Mostly Cloudy 50 10.2 39 3.7 64 64 WSW 7 11 30.15 1021 10 16.0934 0 0
11:55 am 11:55 Mostly Cloudy 51 10.8 39 4.1 64 64 WSW 9 15 30.15 1021 10 16.0934 0 0
12:15 pm 12:15 Mostly Cloudy 51 10.5 39 4 64 64 W 9 15 30.14 1021 10 16.0934 0 0
12:35 pm 12:35 Sunny 50 10 39 3.9 66 66 NNW 7 11 30.13 1020 10 16.0934 0 0
12:55 pm 12:55 Cloudy 52 11 39 3.7 61 61 WSW 7 11 30.12 1020 10 16.0934 0 0
1:15 pm 13:15 Sunny 52 11.3 39 4.1 62 62 SW 7 11 30.1 1019 10 16.0934 0 0
1:35 pm 13:35 Sunny 52 11.2 38 3.5 59 59 W 3 6 30.1 1019 10 16.0934 0 0
1:55 pm 13:55 Mostly Cloudy 52 11.3 39 3.9 61 61 SW 6 9 30.09 1019 10 16.0934 0 0
2:15 pm 14:15 Mostly Cloudy 52 11.3 38 3.6 59 59 Calm 30.08 1018 10 16.0934 0 0
2:35 pm 14:35 Cloudy 53 11.5 39 4.1 61 61 SSW 6 9 30.08 1018 10 16.0934 0 0
2:55 pm 14:55 Mostly Cloudy 53 11.6 39 3.7 59 59 WSW 6 9 30.06 1018 10 16.0934 0 0
3:15 pm 15:15 Cloudy 53 11.6 39 3.9 59 59 SW 5 7 30.06 1018 10 16.0934 0 0
3:35 pm 15:35 Cloudy 53 11.6 39 3.9 59 59 Calm 30.05 1018 10 16.0934 0 0
3:55 pm 15:55 Mostly Cloudy 53 11.5 39 4.1 61 61 WSW 6 9 30.08 1018 10 16.0934 0 0
4:15 pm 16:15 Cloudy 53 11.4 40 4.2 62 62 Calm 30.08 1018 10 16.0934 0 0
4:35 pm 16:35 Cloudy 53 11.4 39 3.8 60 60 Calm 30.08 1018 10 16.0934 0 0
4:55 pm 16:55 Cloudy 51 10.7 41 4.9 68 68 Calm 30.08 1019 10 16.0934 0 0
5:15 pm 17:15 Cloudy 51 10.3 41 5 70 70 Calm 30.09 1019 10 16.0934 0 0
5:35 pm 17:35 Cloudy 50 10.1 42 5.7 74 74 Calm 30.09 1019 10 16.0934 0 0
5:55 pm 17:55 Cloudy 50 10.2 41 4.9 70 70 Calm 30.09 1019 10 16.0934 0 0
6:15 pm 18:15 Cloudy 49 9.3 44 6.5 83 83 Calm 30.09 1019 10 16.0934 0 0
6:35 pm 18:35 Cloudy 48 8.7 44 6.8 88 88 Calm 30.1 1019 10 16.0934 0 0
6:55 pm 18:55 Cloudy 47 8.4 44 6.8 90 90 Calm 30.09 1019 10 16.0934 0 0
7:15 pm 19:15 Cloudy 47 8.5 44 6.7 89 89 Calm 30.09 1019 10 16.0934 0 0
7:35 pm 19:35 Cloudy 46 8 44 6.6 91 91 Calm 30.1 1019 10 16.0934 0 0
7:55 pm 19:55 Cloudy 49 9.4 41 5 74 74 NNW 5 7 30.1 1019 10 16.0934 0 0
8:15 pm 20:15 Cloudy 48 9.1 41 4.8 75 75 N 3 6 30.1 1019 10 16.0934 0 0
8:35 pm 20:35 Cloudy 48 8.9 40 4.6 75 75 Calm 30.08 1019 10 16.0934 0 0
8:55 pm 20:55 Mostly Cloudy 46 7.7 40 4.4 80 80 Calm 30.09 1019 10 16.0934 0 0
9:15 pm 21:15 Clear 44 6.6 42 5.4 92 92 Calm 30.1 1019 10 16.0934 0 0
9:35 pm 21:35 Partly Cloudy 40 4.7 40 4.4 98 98 Calm 30.11 1020 10 16.0934 0 0
9:55 pm 21:55 Partly Cloudy 40 4.7 40 4.4 98 98 Calm 30.11 1020 10 16.0934 0 0
10:15 pm 22:15 Clear 42 5.7 40 4.4 91 91 N 3 6 30.11 1020 10 16.0934 0 0
10:35 pm 22:35 Clear 44 6.6 39 4.1 84 84 Calm 30.11 1020 10 16.0934 0 0
10:55 pm 22:55 Clear 41 4.9 37 3 88 88 Calm 30.11 1020 10 16.0934 0 0
11:15 pm 23:15 Clear 40 4.4 38 3.1 91 91 Calm 30.12 1020 10 16.0934 0 0
11:35 pm 23:35 Clear 38 3.6 37 2.5 93 93 Calm 30.13 1020 10 16.0934 0 0
11:55 pm 23:55 Clear 39 3.9 39 3.8 99 99 Calm 30.13 1020 7 11.26538 0 0

Powered by AerisWeather